Date,TemperatureHighF,TemperatureAvgF,TemperatureLowF,DewpointHighF,DewpointAvgF,DewpointLowF,HumidityHigh,HumidityAvg,HumidityLow,PressureMaxIn,PressureMinIn,WindSpeedMaxMPH,WindSpeedAvgMPH,GustSpeedMaxMPH,PrecipitationSumIn
2013-1-1,60.0,53.5,47.0,57.0,51.3,46.0,100,92,83,0.00,40.00,2,1,0,0.00
2013-1-2,61.0,58.5,52.0,60.0,56.0,50.0,100,92,83,0.00,40.00,4,2,0,0.02
2013-1-3,53.0,50.7,48.0,53.0,50.2,48.0,100,99,95,0.00,40.00,3,1,0,0.01
2013-1-4,55.0,46.3,38.0,48.0,40.0,34.0,100,82,47,0.00,40.00,4,2,0,0.00
2013-1-5,57.0,45.2,35.0,42.0,36.6,31.0,100,76,41,0.00,40.00,5,2,0,0.00
2013-1-6,55.0,49.2,46.0,48.0,45.5,42.0,98,88,68,0.00,40.00,3,1,0,0.01
2013-1-7,55.0,48.1,41.0,45.0,38.6,35.0,91,71,47,0.00,40.00,8,4,0,0.00
2013-1-8,67.0,53.0,44.0,55.0,47.1,38.0,95,81,62,0.00,40.00,5,3,0,0.00
2013-1-9,72.0,62.0,54.0,64.0,57.6,52.0,98,86,74,0.00,40.00,4,2,0,0.00
2013-1-10,70.0,60.6,54.0,61.0,58.2,54.0,100,93,64,0.00,40.00,8,4,0,0.03
2013-1-11,73.0,61.7,54.0,66.0,59.9,54.0,100,95,75,0.00,40.00,3,1,0,0.00
2013-1-12,76.0,62.5,56.0,67.0,60.0,56.0,100,93,61,0.00,40.00,1,0,0,0.00
2013-1-13,71.0,61.1,54.0,64.0,59.6,54.0,100,95,80,0.00,40.00,2,0,0,0.00
2013-1-14,75.0,63.6,57.0,65.0,61.3,57.0,100,93,70,0.00,40.00,2,1,0,0.00
2013-1-15,74.0,63.5,58.0,65.0,61.4,58.0,100,94,74,0.00,40.00,3,1,0,0.00
2013-1-16,74.0,66.3,60.0,64.0,62.6,60.0,100,89,68,0.00,40.00,3,1,0,0.00
2013-1-17,70.0,60.1,45.0,62.0,56.3,39.0,99,87,72,0.00,40.00,11,3,0,0.05
2013-1-18,55.0,46.3,38.0,41.0,32.5,21.0,91,63,27,0.00,40.00,9,5,0,0.00
2013-1-19,62.0,48.5,40.0,48.0,38.9,30.0,100,71,52,0.00,40.00,5,3,0,0.00
2013-1-20,67.0,52.5,44.0,49.0,42.7,35.0,100,75,32,0.00,40.00,6,2,0,0.00
2013-1-21,64.0,51.1,38.0,44.0,38.9,34.0,98,68,36,0.00,40.00,6,2,0,0.00
2013-1-22,56.0,47.8,41.0,34.0,25.4,22.0,56,42,29,0.00,40.00,5,3,0,0.00
2013-1-23,54.0,41.9,34.0,25.0,22.2,20.0,60,47,32,0.00,40.00,5,3,0,0.00
2013-1-24,68.0,56.2,40.0,46.0,32.6,23.0,62,43,25,0.00,40.00,9,6,0,0.00
2013-1-25,56.0,42.1,31.0,46.0,31.9,20.0,75,66,60,0.00,40.00,7,4,0,0.00
2013-1-26,62.0,49.4,40.0,48.0,41.9,38.0,98,78,46,0.00,40.00,5,2,0,0.00
2013-1-27,55.0,45.4,38.0,42.0,38.4,34.0,95,78,56,0.00,40.00,7,4,0,0.00
2013-1-28,64.0,50.6,42.0,54.0,45.5,38.0,100,84,63,0.00,40.00,4,2,0,0.00
2013-1-29,72.0,58.4,48.0,65.0,56.8,48.0,100,95,78,0.00,40.00,2,1,0,0.00
2013-1-30,71.0,65.7,59.0,65.0,63.0,59.0,100,91,79,0.00,40.00,8,4,0,0.11
2013-1-31,57.0,50.4,45.0,54.0,28.5,21.0,91,45,27,0.00,40.00,10,5,0,0.00
2013-2-1,58.0,47.6,35.0,32.0,24.4,12.0,60,43,19,0.00,40.00,9,4,0,0.00
2013-2-2,56.0,42.4,30.0,41.0,31.7,21.0,96,67,47,0.00,40.00,4,2,0,0.00
2013-2-3,61.0,50.1,42.0,41.0,33.8,30.0,89,56,31,0.00,40.00,8,4,0,0.00
2013-2-4,54.0,44.2,32.0,41.0,35.4,30.0,92,73,44,0.00,40.00,3,1,0,0.00
2013-2-5,68.0,51.0,38.0,51.0,44.9,38.0,100,82,44,0.00,40.00,5,2,0,0.00
2013-2-6,70.0,56.0,47.0,55.0,50.9,47.0,100,85,52,0.00,40.00,4,1,0,0.00
2013-2-7,61.0,54.9,50.0,58.0,54.3,50.0,100,98,91,0.00,40.00,6,3,0,0.72
2013-2-8,65.0,55.1,48.0,61.0,49.8,46.0,100,83,60,0.00,40.00,6,3,0,0.00
2013-2-9,63.0,50.1,40.0,50.0,34.8,-99.9,99,70,23,0.00,40.00,4,2,0,0.00
2013-2-10,66.0,54.1,39.0,56.0,48.7,39.0,100,83,62,0.00,40.00,7,3,0,0.00
2013-2-11,65.0,61.0,59.0,63.0,60.1,57.0,100,97,90,0.00,40.00,3,1,0,1.75
2013-2-12,59.0,56.3,51.0,59.0,55.0,51.0,100,96,76,0.00,40.00,4,2,0,0.71
2013-2-13,74.0,60.4,52.0,65.0,54.6,47.0,100,84,44,0.00,40.00,8,3,0,0.02
2013-2-14,53.0,49.1,43.0,49.0,43.2,39.0,98,81,61,0.00,40.00,3,2,0,0.00
2013-2-15,59.0,47.9,40.0,44.0,42.2,40.0,100,83,49,0.00,40.00,3,1,0,0.00
2013-2-16,52.0,44.6,39.0,46.0,38.9,19.0,100,82,42,0.00,40.00,8,3,0,0.00
2013-2-17,48.0,38.0,30.0,26.0,16.6,9.0,78,45,20,0.00,40.00,7,4,0,0.00
2013-2-18,53.0,40.7,28.0,35.0,27.0,19.0,93,63,28,0.00,40.00,4,1,0,0.00
2013-2-19,64.0,51.5,38.0,57.0,48.4,36.0,100,90,57,0.00,40.00,5,2,0,0.11
2013-2-20,56.0,47.0,33.0,50.0,34.9,25.0,100,67,32,0.00,40.00,3,2,0,0.00
2013-2-21,63.0,49.1,36.0,50.0,40.9,34.0,100,79,36,0.00,40.00,4,1,0,0.00
2013-2-22,62.0,55.3,50.0,62.0,53.1,46.0,100,93,76,0.00,40.00,9,4,0,0.01
2013-2-23,61.0,51.3,46.0,61.0,51.3,46.0,100,100,100,0.00,40.00,4,2,0,0.06
2013-2-24,69.0,56.2,49.0,57.0,50.8,45.0,100,85,43,0.00,40.00,4,2,0,0.00
2013-2-25,52.0,48.5,42.0,52.0,48.1,42.0,100,99,88,0.00,40.00,9,4,0,0.00
2013-2-26,70.0,61.4,45.0,65.0,58.3,44.0,100,90,70,0.00,40.00,9,5,0,1.20
2013-2-27,61.0,53.1,48.0,52.0,43.0,38.0,87,69,56,0.00,40.00,6,4,0,0.00
2013-2-28,61.0,53.1,48.0,43.0,36.0,28.0,76,55,31,0.00,40.00,10,5,0,0.00
2013-3-1,51.0,45.5,40.0,38.0,32.4,29.0,79,60,47,0.00,40.00,5,3,0,0.00
2013-3-2,49.0,43.3,36.0,35.0,32.4,30.0,82,66,47,0.00,40.00,8,4,0,0.00
2013-3-3,44.0,39.7,33.0,31.0,28.1,24.0,85,64,50,0.00,40.00,5,3,0,0.00
2013-3-4,56.0,41.7,30.0,40.0,26.1,20.0,92,58,25,0.00,40.00,5,3,0,0.00
2013-3-5,61.0,53.2,42.0,58.0,46.0,38.0,100,78,43,0.00,40.00,6,2,0,0.07
2013-3-6,59.0,47.4,41.0,56.0,31.7,21.0,90,56,38,0.00,40.00,10,7,0,0.00
2013-3-7,59.0,45.8,35.0,41.0,33.2,29.0,94,65,35,0.00,40.00,5,3,0,0.00
2013-3-8,61.0,47.9,38.0,39.0,30.9,24.0,99,57,24,0.00,40.00,7,3,0,0.00
2013-3-9,58.0,47.4,36.0,45.0,37.1,31.0,99,70,42,0.00,40.00,6,2,0,0.00
2013-3-10,67.0,52.6,42.0,49.0,43.7,40.0,100,75,44,0.00,40.00,6,2,0,0.00
2013-3-11,69.0,58.6,50.0,59.0,53.0,42.0,100,83,66,0.00,40.00,5,2,0,0.00
2013-3-12,70.0,62.8,59.0,64.0,57.1,43.0,99,84,42,0.00,40.00,5,3,0,0.05
2013-3-13,65.0,56.2,45.0,43.0,32.6,24.0,72,44,23,0.00,40.00,8,4,0,0.00
2013-3-14,56.0,46.6,38.0,39.0,24.7,22.0,87,44,26,0.00,40.00,6,3,0,0.00
2013-3-15,67.0,50.7,39.0,49.0,37.6,28.0,96,66,30,0.00,40.00,5,2,0,0.00
2013-3-16,77.0,63.2,53.0,52.0,45.5,41.0,84,56,29,0.00,40.00,8,4,0,0.00
2013-3-17,74.0,63.4,56.0,57.0,53.1,50.0,91,70,44,0.00,40.00,7,3,0,0.00
2013-3-18,65.0,61.2,57.0,62.0,57.5,54.0,99,87,76,0.00,40.00,6,2,0,0.26
2013-3-19,75.0,63.3,55.0,58.0,49.8,29.0,100,70,24,0.00,40.00,6,3,0,0.04
2013-3-20,65.0,55.1,45.0,42.0,31.7,18.0,84,44,20,0.00,40.00,7,4,0,0.00
2013-3-21,58.0,49.4,42.0,41.0,24.9,15.0,97,43,19,0.00,40.00,8,4,0,0.00
2013-3-22,53.0,45.8,39.0,44.0,29.3,20.0,86,54,39,0.00,40.00,6,2,0,0.00
2013-3-23,57.0,50.8,45.0,53.0,48.3,44.0,100,91,66,0.00,40.00,9,3,0,0.00
2013-3-24,68.0,55.8,49.0,65.0,54.8,48.0,100,97,90,0.00,40.00,8,5,0,0.00
2013-3-25,56.0,50.1,44.0,50.0,34.0,21.0,100,59,27,0.00,40.00,10,6,0,0.00
2013-3-26,52.0,43.2,35.0,30.0,25.8,23.0,69,51,39,0.00,40.00,8,5,0,0.00
2013-3-27,58.0,45.6,34.0,39.0,28.8,25.0,88,55,30,0.00,40.00,6,3,0,0.00
2013-3-28,61.0,48.1,37.0,42.0,31.0,25.0,92,57,25,0.00,40.00,5,3,0,0.00
2013-3-29,61.0,50.5,39.0,46.0,39.9,32.0,100,72,35,0.00,40.00,5,2,0,0.00
2013-3-30,69.0,59.5,50.0,53.0,49.0,45.0,96,71,43,0.00,40.00,4,2,0,0.00
2013-3-31,72.0,62.8,55.0,58.0,55.2,50.0,90,76,58,0.00,40.00,5,2,0,0.04
2013-4-1,77.0,66.0,59.0,63.0,58.5,56.0,99,78,52,0.00,40.00,7,3,0,0.14
2013-4-2,66.0,58.7,53.0,56.0,48.4,44.0,96,70,50,0.00,40.00,8,3,0,0.00
2013-4-3,70.0,56.9,50.0,55.0,50.8,45.0,100,81,56,0.00,40.00,7,3,0,0.00
2013-4-4,60.0,55.2,51.0,59.0,52.7,45.0,100,92,67,0.00,40.00,10,5,0,0.01
2013-4-5,59.0,49.6,44.0,50.0,46.8,44.0,100,91,71,0.00,40.00,6,3,0,0.00
2013-4-6,69.0,56.6,46.0,53.0,46.5,37.0,98,74,31,0.00,40.00,8,3,0,0.00
2013-4-7,71.0,60.9,50.0,62.0,56.3,50.0,100,86,65,0.00,40.00,8,3,0,0.00
2013-4-8,76.0,64.7,54.0,62.0,59.1,54.0,100,84,56,0.00,40.00,4,1,0,0.00
2013-4-9,78.0,67.0,58.0,66.0,62.8,58.0,100,87,63,0.00,40.00,3,1,0,0.00
2013-4-10,77.0,67.6,58.0,65.0,62.3,58.0,100,85,59,0.00,40.00,4,1,0,0.00
2013-4-11,76.0,68.8,63.0,71.0,67.0,63.0,100,94,82,0.00,40.00,5,2,0,0.00
2013-4-12,75.0,71.1,68.0,73.0,69.4,65.0,99,94,85,0.00,40.00,5,3,0,0.24
2013-4-13,74.0,65.0,56.0,65.0,52.0,45.0,98,64,40,0.00,40.00,4,2,0,0.00
2013-4-14,70.0,63.4,56.0,63.0,60.1,56.0,100,90,70,0.00,40.00,5,2,0,0.34
2013-4-15,71.0,65.9,62.0,67.0,63.8,61.0,100,94,78,0.00,40.00,5,2,0,0.28
2013-4-16,78.0,68.4,60.0,65.0,62.9,60.0,100,84,62,0.00,40.00,5,2,0,0.00
2013-4-17,79.0,68.8,61.0,69.0,63.1,60.0,100,84,54,0.00,40.00,6,2,0,0.00
2013-4-18,78.0,71.0,65.0,69.0,66.6,65.0,100,87,67,0.00,40.00,6,3,0,0.02
2013-4-19,77.0,72.1,68.0,72.0,69.3,66.0,100,91,76,0.00,40.00,6,3,0,1.20
2013-4-20,66.0,55.8,49.0,66.0,50.9,46.0,100,85,60,0.00,40.00,5,3,0,0.24
2013-4-21,69.0,57.4,46.0,54.0,49.3,45.0,100,76,53,0.00,40.00,10,6,0,0.00
2013-4-22,70.0,59.0,51.0,51.0,47.0,39.0,76,65,49,0.00,40.00,8,6,0,0.00
2013-4-23,68.0,58.5,51.0,57.0,52.8,49.0,94,82,65,0.00,40.00,6,3,0,0.00
2013-4-24,74.0,63.5,51.0,64.0,58.5,51.0,100,85,65,0.00,40.00,3,1,0,0.00
2013-4-25,82.0,70.7,63.0,66.0,63.9,62.0,97,80,55,0.00,40.00,4,1,0,0.00
2013-4-26,74.0,66.7,61.0,65.0,54.9,39.0,100,71,29,0.00,40.00,9,4,0,0.00
2013-4-27,76.0,64.7,56.0,59.0,55.4,50.0,100,75,43,0.00,40.00,6,3,0,0.00
2013-4-28,75.0,68.3,61.0,66.0,62.8,56.0,97,83,71,0.00,40.00,7,3,0,0.00
2013-4-29,77.0,69.2,64.0,68.0,65.8,62.0,100,89,68,0.00,40.00,3,1,0,0.44
2013-4-30,75.0,67.4,63.0,67.0,64.2,61.0,100,90,69,0.00,40.00,5,1,0,0.01
2013-5-1,71.0,65.0,60.0,63.0,60.6,59.0,100,87,66,0.00,40.00,6,4,0,0.00
2013-5-2,72.0,67.9,65.0,65.0,63.3,60.0,95,86,74,0.00,40.00,10,7,0,0.00
2013-5-3,70.0,64.1,60.0,63.0,59.7,53.0,94,86,74,0.00,40.00,10,7,0,0.02
2013-5-4,67.0,62.3,57.0,62.0,59.0,53.0,98,90,75,0.00,40.00,11,7,0,0.06
2013-5-5,71.0,66.2,62.0,67.0,63.7,61.0,100,92,81,0.00,40.00,9,5,0,0.26
2013-5-6,71.0,62.9,57.0,61.0,53.3,44.0,100,75,39,0.00,40.00,5,2,0,0.00
2013-5-7,68.0,61.1,53.0,60.0,55.7,52.0,100,83,60,0.00,40.00,4,1,0,0.08
2013-5-8,78.0,65.9,52.0,63.0,56.9,51.0,100,75,45,0.00,40.00,4,2,0,0.00
2013-5-9,84.0,71.9,62.0,65.0,61.9,59.0,98,73,43,0.00,40.00,4,2,0,0.00
2013-5-10,82.0,72.0,62.0,69.0,62.7,-99.9,97,76,56,0.00,40.00,3,1,0,0.00
2013-5-11,82.0,74.4,69.0,70.0,67.1,61.0,98,80,52,0.00,40.00,5,1,0,0.00
2013-5-12,82.0,74.3,69.0,69.0,60.6,51.0,89,66,35,0.00,40.00,6,3,0,0.00
2013-5-13,74.0,65.2,56.0,51.0,43.1,36.0,69,47,29,0.00,40.00,5,3,0,0.00
2013-5-14,73.0,62.7,51.0,54.0,48.2,42.0,92,62,38,0.00,40.00,4,2,0,0.00
2013-5-15,84.0,70.8,61.0,63.0,57.9,53.0,85,66,42,0.00,40.00,5,2,0,0.00
2013-5-16,83.0,67.8,66.0,67.0,41.4,-99.9,90,68,52,0.00,40.00,5,2,0,0.00
2013-5-17,83.0,72.4,65.0,70.0,60.1,-99.9,100,81,58,0.00,40.00,2,1,0,0.00
2013-5-18,80.0,73.3,66.0,71.0,68.8,66.0,100,87,68,0.00,40.00,4,1,0,0.01
2013-5-19,82.0,75.3,70.0,72.0,71.1,69.0,98,87,69,0.00,40.00,4,1,0,0.02
2013-5-20,81.0,75.0,66.0,73.0,71.0,65.0,100,88,70,0.00,40.00,4,1,0,0.53
2013-5-21,78.0,74.5,71.0,74.0,71.6,69.0,100,91,78,0.00,40.00,3,1,0,0.04
2013-5-22,82.0,75.4,67.0,72.0,69.0,65.0,100,81,59,0.00,40.00,4,1,0,0.00
2013-5-23,86.0,76.8,71.0,73.0,70.5,66.0,99,82,51,0.00,40.00,4,1,0,0.00
2013-5-24,84.0,75.2,67.0,70.0,57.9,45.0,96,58,31,0.00,40.00,6,3,0,0.00
2013-5-25,77.0,66.5,55.0,57.0,48.5,41.0,81,55,33,0.00,40.00,7,2,0,0.00
2013-5-26,80.0,69.9,57.0,63.0,59.2,56.0,100,71,43,0.00,40.00,3,1,0,0.00
2013-5-27,80.0,72.3,63.0,69.0,64.9,63.0,100,79,56,0.00,40.00,3,1,0,0.00
2013-5-28,82.0,75.1,66.0,71.0,66.1,63.0,100,75,55,0.00,40.00,6,2,0,0.00
2013-5-29,82.0,75.5,67.0,70.0,66.8,65.0,97,75,58,0.00,40.00,5,3,0,0.00
2013-5-30,83.0,76.0,68.0,73.0,70.1,67.0,100,83,66,0.00,40.00,5,3,0,0.00
2013-5-31,84.0,77.3,71.0,75.0,71.6,70.0,100,83,64,0.00,40.00,5,2,0,0.00
2013-6-1,83.0,77.9,71.0,72.0,70.8,70.0,96,79,65,0.00,40.00,5,3,0,0.00
2013-6-2,83.0,77.9,74.0,74.0,72.5,70.0,91,84,72,0.00,40.00,4,2,0,0.00
2013-6-3,88.0,80.1,76.0,77.0,74.6,71.0,95,84,57,0.00,40.00,7,2,0,0.01
2013-6-4,89.0,79.3,74.0,76.0,74.6,73.0,99,86,58,0.00,40.00,7,2,0,0.00
2013-6-5,81.0,77.1,73.0,76.0,74.4,73.0,100,92,78,0.00,40.00,6,3,0,0.89
2013-6-6,79.0,75.0,72.0,75.0,72.9,71.0,100,94,78,0.00,40.00,7,3,0,1.31
2013-6-7,87.0,77.8,73.0,76.0,72.9,71.0,99,86,59,0.00,40.00,9,5,0,0.09
2013-6-8,88.0,79.7,74.0,77.0,73.7,71.0,93,83,60,0.00,40.00,4,2,0,0.00
2013-6-9,83.0,79.6,76.0,76.0,75.0,73.0,98,86,74,0.00,40.00,4,1,0,0.00
2013-6-10,84.0,78.8,70.0,77.0,74.9,69.0,100,88,78,0.00,40.00,3,1,0,0.64
2013-6-11,89.0,79.8,72.0,78.0,73.8,72.0,100,83,58,0.00,40.00,5,2,0,0.01
2013-6-12,95.0,84.4,75.0,80.0,73.7,71.0,94,72,47,0.00,40.00,4,2,0,0.00
2013-6-13,94.0,85.6,77.0,80.0,75.9,71.0,98,75,48,0.00,40.00,6,2,0,0.00
2013-6-14,88.0,81.7,72.0,74.0,66.5,59.0,88,62,40,0.00,40.00,5,2,0,0.00
2013-6-15,83.0,76.4,68.0,71.0,65.4,60.0,100,72,50,0.00,40.00,5,2,0,0.00
2013-6-16,84.0,76.4,68.0,69.0,66.4,63.0,99,73,55,0.00,40.00,2,1,0,0.00
2013-6-17,86.0,78.8,71.0,76.0,72.8,68.0,98,83,61,0.00,40.00,3,1,0,0.10
2013-6-18,89.0,80.2,70.0,78.0,74.2,70.0,100,83,58,0.00,40.00,6,2,0,0.59
2013-6-19,85.0,78.0,70.0,78.0,73.8,70.0,100,87,69,0.00,40.00,4,2,0,1.06
2013-6-20,82.0,74.9,71.0,74.0,71.6,70.0,100,91,70,0.00,40.00,5,3,0,0.00
2013-6-22,83.0,80.1,78.0,74.0,72.9,72.0,89,79,72,0.00,40.00,2,2,0,0.00
2013-6-23,87.0,79.5,73.0,77.0,74.5,73.0,100,85,63,0.00,40.00,4,1,0,0.00
2013-6-24,85.0,79.2,75.0,78.0,75.5,73.0,99,89,73,0.00,40.00,3,1,0,0.57
2013-6-25,86.0,80.7,74.0,77.0,75.1,70.0,99,83,64,0.00,40.00,2,1,0,0.09
2013-6-26,87.0,80.3,72.0,77.0,74.6,70.0,97,84,67,0.00,40.00,5,2,0,0.01
2013-6-27,90.0,82.3,77.0,78.0,75.3,69.0,93,80,64,0.00,40.00,4,2,0,0.00
2013-6-28,89.0,82.8,77.0,80.0,75.2,71.0,89,77,65,0.00,40.00,5,3,0,0.00
2013-6-29,88.0,79.6,73.0,76.0,73.5,71.0,96,82,65,0.00,40.00,3,2,0,0.09
2013-6-30,84.0,79.5,73.0,78.0,75.7,72.0,99,88,79,0.00,40.00,5,2,0,0.24
2013-7-1,85.0,79.8,74.0,77.0,75.0,73.0,97,86,73,0.00,40.00,4,2,0,0.17
2013-7-2,81.0,78.2,74.0,76.0,74.6,73.0,98,89,83,0.00,40.00,4,1,0,0.56
2013-7-3,85.0,80.4,75.0,77.0,76.0,74.0,98,87,77,0.00,40.00,6,2,0,0.05
2013-7-4,86.0,81.4,75.0,77.0,76.3,74.0,98,84,75,0.00,40.00,7,4,0,0.02
2013-7-5,86.0,81.6,79.0,77.0,76.0,75.0,92,83,72,0.00,40.00,6,3,0,0.00
2013-7-6,85.0,79.5,75.0,77.0,75.1,74.0,99,87,72,0.00,40.00,6,3,0,0.22
2013-7-7,86.0,81.2,78.0,75.0,74.2,73.0,90,80,65,0.00,40.00,2,1,0,0.00
2013-7-8,86.0,78.9,73.0,76.0,74.2,73.0,100,86,69,0.00,40.00,2,0,0,0.00
2013-7-9,86.0,79.5,73.0,77.0,74.4,73.0,100,85,66,0.00,40.00,2,1,0,0.03
2013-7-10,80.0,73.2,74.0,76.0,66.5,-99.9,97,88,82,0.00,40.00,1,0,0,0.00
2013-8-10,88.0,88.0,88.0,77.0,77.0,77.0,69,69,69,0.00,40.00,2,2,0,0.00
2013-8-21,89.0,81.3,74.0,80.0,76.4,74.0,100,86,64,0.00,40.00,4,1,0,0.00
2013-8-22,87.0,80.0,75.0,79.0,75.6,70.0,100,88,58,0.00,40.00,2,1,0,0.16
2013-8-23,90.0,80.6,73.0,76.0,74.3,73.0,100,83,58,0.00,40.00,4,1,0,0.00
2013-8-24,84.0,77.6,73.0,76.0,74.0,71.0,100,90,70,0.00,40.00,6,2,0,0.19
2013-8-25,84.0,75.5,67.0,72.0,66.6,58.0,100,77,41,0.00,40.00,7,3,0,0.01
2013-8-26,83.0,75.3,68.0,72.0,68.5,64.0,100,80,63,0.00,40.00,4,3,0,0.00
2013-8-27,87.0,75.3,69.0,73.0,68.5,62.0,100,83,43,0.00,40.00,2,1,0,0.00
2013-9-24,80.0,72.5,68.0,66.0,64.3,63.0,93,76,58,0.00,40.00,7,4,0,0.00
2013-9-25,80.0,73.0,68.0,69.0,67.6,65.0,98,84,68,0.00,40.00,6,4,0,0.00
2013-9-26,74.0,67.7,64.0,69.0,66.5,64.0,100,96,80,0.00,40.00,6,3,0,0.47
2013-9-27,80.0,68.8,61.0,64.0,62.2,60.0,100,81,56,0.00,40.00,6,3,0,0.00
2013-9-28,78.0,67.6,58.0,63.0,60.4,57.0,99,79,59,0.00,40.00,5,3,0,0.00
2013-9-29,78.0,67.8,60.0,63.0,60.2,57.0,100,79,48,0.00,40.00,5,3,0,0.00
2013-9-30,78.0,65.5,57.0,63.0,58.6,54.0,100,82,45,0.00,40.00,4,1,0,0.00